{"data":{"norad_id":67140,"intl_designator":"2025-301H","name":"KUIPER-00186","alt_names":[],"object_type":"PAYLOAD","status":"ACTIVE","operator":null,"country":"US","launch_date":"2025-12-16","launch_site_code":"AFETR","launch_vehicle":null,"mission":null,"orbit_class":"UNKNOWN","rcs_meters":null,"size_class":null,"mass_kg":null,"dimensions":null,"purposes":[],"wikipedia_slug":null,"has_3d_model":false,"image_url":null,"decayed_at":null,"tle_current":{"epoch":"2026-09-20T19:21:43.467840Z","epoch_age_seconds":79628,"freshness":"FRESH","line1":"1 67140U 25301H   26263.80675310  .00001563  00000+0  23393-3 0  9995","line2":"2 67140  51.9041 295.3448 0000356  65.0133 295.0866 14.79931620 42450","mean_motion":14.7993162,"eccentricity":3.56e-5,"inclination_deg":51.9041,"raan_deg":295.3448,"arg_perigee_deg":65.0133,"mean_anomaly_deg":295.0866,"bstar":0.00023393,"rev_number":4245,"period_min":97.301792903107,"perigee_km":629.29051219573,"apogee_km":629.7894587971,"semimajor_km":7007.6769854964,"source":"CELESTRAK","updated_at":"2026-09-21T09:00:16.455785Z"}}}